TOURFACTS.DK  
Stats and Facts from Tour de France.

Tour de France 2019 starts in 347 days
  Riders   Stages   Teams   Summits   Yearly  


 
Search by year

After 2018 - Stage 14:
 15000 starters.
  5163 different riders.
  639 teams.
  2246 stages.
  456 restdays.
  441957.60 km.
  5678 abandonnees.


Top 3
GC
Christopher Froome86:20:55
Rigoberto Urán86:21:49
Romain Bardet86:23:15
Climb
Warren Barguil169 pt.
Primoz Roglic80 pt.
Thomas De Gendt64 pt.
Sprint
Michael Matthews359 pt.
André Greipel234 pt.
Edvald Boasson Hagen220 pt.
Youth
Simon Yates86:27:09
Louis Meintjes86:29:15
Emanuel Buchmann86:54:16
Facts from Tour de France 2002
  |   Stages.  |   Stage winners.  |   Days in yellow  |   Average speed.  |   Route.  |   Teams.  |   All riders.  |   Rookies.  |  

  |   Withdrawls.  |   GC.  |   Polka  |   Green  |   White  |   Summits. (In tour)  |   Miscellaneous.  |  

Stage 15 on July 23rd. 2002
         Owning:    Lance Armstrong    
Pick a stage:  Pro 1 2 3 4 5 6 7 8 9 10 11 12 13 14 15 16 17 18 19 20
From: Vaison-la-Romaine    To: Les Deux AlpesDist:226.50 km.
Cat: 3PramolCOLSantiago Botero
10 points
 
Cat: 2Col de GrimoneBELAxel Merckx
20 points
 
Cat: 4Croix HauteBELAxel Merckx
10 points
 
Cat: 3BanchetBELAxel Merckx
10 points
 
Cat: 3Côte de PonsonasBELAxel Merckx
10 points
 
Cat: 2Col d'OrnonBELAxel Merckx
20 points
 
Cat: 1Les Deux AlpesCOLSantiago Botero
30 points
 

Average speed for all riders in stage:  36,548 km./hr.
    Place:Name:Team:Time:Km/h:
COLSantiago BoteroESPKelme-Costa Blanca05:55:16  +  00:00:00=38,253 
BELMario AertsBELLotto-Adecco05:57:07  +  00:01:51=38,055 
BELAxel MerckxBELDomo-Farm Frites05:57:46  +  00:02:30=37,986 
4 FRAEmmanuel MagnienFRABonjour05:59:38  +  00:04:22=37,788 
5 FRASandy CasarFRAfdjeux.com05:59:44  +  00:04:28=37,778 
6 ESPJosé GarciaESPibanesto.com06:00:31  +  00:05:15=37,696 
7 URSRaimondas RumsasITALampre-Daikin06:01:57  +  00:06:41=37,547 
8 ESPJoseba BelokiESPO.N.C.E.-Eroski06:01:57  +  00:06:41=37,547 
9 USALance ArmstrongUSAUS Postal Service06:01:57  +  00:06:41=37,547 
10 ESPFrancisco ManceboESPibanesto.com06:02:02  +  00:06:46=37,538 
11 ESPRoberto HerasUSAUS Postal Service06:02:08  +  00:06:52=37,528 
12 ITAIvan BassoITAFassa Bortolo06:02:08  +  00:06:52=37,528 
13 USALevi LeipheimerNLDRabobank06:02:08  +  00:06:52=37,528 
14 PORJosé AzevedoESPO.N.C.E.-Eroski06:02:11  +  00:06:55=37,522 
15 ESPIgor GonzalezESPO.N.C.E.-Eroski06:02:11  +  00:06:55=37,522 
16 ESPCarlos SastreDNKTeam CSC-Tiscali06:02:11  +  00:06:55=37,522 
17 ESPUnai OsaESPibanesto.com06:02:16  +  00:07:00=37,514 
18 FRADavid MoncoutiéFRACofidis Credit Par Telephone06:02:19  +  00:07:03=37,509 
19 FRAStéphane GoubertFRAJean Delatour06:02:19  +  00:07:03=37,509 
20 ITAMassimiliano LelliFRACofidis Credit Par Telephone06:02:19  +  00:07:03=37,509 
21 POLDariusz BaranowskiESPibanesto.com06:02:37  +  00:07:21=37,478 
22 USATyler HamiltonDNKTeam CSC-Tiscali06:02:37  +  00:07:21=37,478 
23 NEDMichael BoogerdNLDRabobank06:02:39  +  00:07:23=37,474 
24 ESPDavid EtxebarriaESPEuskaltel - Euskadi06:02:39  +  00:07:23=37,474 
25 ESPRoberto LaisekaESPEuskaltel - Euskadi06:02:47  +  00:07:31=37,460 
26 ITADario FrigoITATacconi Sport06:02:52  +  00:07:36=37,452 
27 ESPJosé RubieraUSAUS Postal Service06:02:59  +  00:07:43=37,440 
28 ITAIvan GottiITAAlessio06:03:03  +  00:07:47=37,433 
29 FRALaurent BrochardFRAJean Delatour06:03:12  +  00:07:56=37,417 
30 FRALaurent LefèvreFRAJean Delatour06:03:12  +  00:07:56=37,417 
31 FRANicolas VogondyFRAfdjeux.com06:03:17  +  00:08:01=37,409 
32 FRAJean-Cyril RobinFRAfdjeux.com06:03:22  +  00:08:06=37,400 
33 SLOMartin HvastijaITAAlessio06:03:22  +  00:08:06=37,400 
34 ESPJosé Enrique GutierrezESPKelme-Costa Blanca06:03:22  +  00:08:06=37,400 
35 ESPÓscar SevillaESPKelme-Costa Blanca06:03:22  +  00:08:06=37,400 
36 ESPIñigo CuestaFRACofidis Credit Par Telephone06:03:37  +  00:08:21=37,375 
37 KAZAndrei KivilevFRACofidis Credit Par Telephone06:03:37  +  00:08:21=37,375 
38 RUSAlexandre BotcharovFRAAg2r Prevoyance06:03:37  +  00:08:21=37,375 
39 POLPiotr WadeckiBELDomo-Farm Frites06:03:52  +  00:08:36=37,349 
40 FRASylvain ChavanelFRABonjour06:03:52  +  00:08:36=37,349 
41 GERJörg JakscheESPO.N.C.E.-Eroski06:03:58  +  00:08:42=37,339 
42 USAFloyd LandisUSAUS Postal Service06:03:58  +  00:08:42=37,339 
43 USAGeorge HincapieUSAUS Postal Service06:03:58  +  00:08:42=37,339 
44 ESPMikel PraderaESPO.N.C.E.-Eroski06:03:58  +  00:08:42=37,339 
45 ESPIsidro NozalESPO.N.C.E.-Eroski06:04:14  +  00:08:58=37,311 
46 SUIBeat ZbergNLDRabobank06:04:43  +  00:09:27=37,262 
47 USABobby JulichUSATeam Telekom06:04:43  +  00:09:27=37,262 
48 FRACédric VasseurFRACofidis Credit Par Telephone06:04:43  +  00:09:27=37,262 
49 BELThierry MarichalBELLotto-Adecco06:04:43  +  00:09:27=37,262 
50 GERUdo BöltsUSATeam Telekom06:04:43  +  00:09:27=37,262 
51 MARRichard VirenqueBELDomo-Farm Frites06:04:43  +  00:09:27=37,262 
52 HUNLaszlo BodrogiITAMapei-Quick Step06:04:43  +  00:09:27=37,262 
53 BELChristophe BrandtBELLotto-Adecco06:04:43  +  00:09:27=37,262 
54 DENNicki SørensenDNKTeam CSC-Tiscali06:04:43  +  00:09:27=37,262 
55 NEDAddy EngelsNLDRabobank06:04:57  +  00:09:41=37,238 
56 ESPDaniel AtienzaFRACofidis Credit Par Telephone06:05:07  +  00:09:51=37,221 
57 FRAFrédéric BessyFRACredit Agricole06:05:24  +  00:10:08=37,192 
58 FRAPatrice HalgandFRAJean Delatour06:05:24  +  00:10:08=37,192 
59 ESPMiguel Angel MartinezITAMapei-Quick Step06:06:00  +  00:10:44=37,131 
60 ESPHaimar ZubeldiaESPEuskaltel - Euskadi06:06:20  +  00:11:04=37,097 
61 ESPMarcos SerranoESPO.N.C.E.-Eroski06:06:50  +  00:11:34=37,047 
62 ESPIñigo ChaurreauFRAAg2r Prevoyance06:06:53  +  00:11:37=37,042 
63 ITAMarzio BruseghinESPibanesto.com06:06:53  +  00:11:37=37,042 
64 UKRVolodymir GustovITAFassa Bortolo06:07:04  +  00:11:48=37,023 
65 GERGrischa NiermannNLDRabobank06:07:13  +  00:11:57=37,008 
66 ITAEddy MazzoleniITATacconi Sport06:07:16  +  00:12:00=37,003 
67 FRAStéphane BergesFRAAg2r Prevoyance06:07:35  +  00:12:19=36,971 
68 CZETomas KonecnyBELDomo-Farm Frites06:08:19  +  00:13:03=36,898 
69 FRAFranck RenierFRABonjour06:09:52  +  00:14:36=36,743 
70 ITAAndrea TafiITAMapei-Quick Step06:10:39  +  00:15:23=36,665 
71 ITAGianluca BortolamiITATacconi Sport06:10:39  +  00:15:23=36,665 
72 AUTGerhard TrampuschITAMapei-Quick Step06:10:39  +  00:15:23=36,665 
73 FRACyril DesselFRAJean Delatour06:10:39  +  00:15:23=36,665 
74 FRAAndy FlickingerFRAAg2r Prevoyance06:11:16  +  00:16:00=36,604 
75 FRAChristophe AgnoluttoFRAAg2r Prevoyance06:11:16  +  00:16:00=36,604 
76 ITAWladimir BelliITAFassa Bortolo06:11:33  +  00:16:17=36,577 
77 ITAMarco VeloITAFassa Bortolo06:11:33  +  00:16:17=36,577 
78 FRAChristophe MenginFRAfdjeux.com06:12:34  +  00:17:18=36,477 
79 RUSSerguei IvanovITAFassa Bortolo06:13:02  +  00:17:46=36,431 
80 ESPIban MayoESPEuskaltel - Euskadi06:13:23  +  00:18:07=36,397 
81 FRAStéphane AugeFRAJean Delatour06:13:23  +  00:18:07=36,397 
82 SUIThierry LoderFRAAg2r Prevoyance06:13:23  +  00:18:07=36,397 
83 FRAJérôme PineauFRABonjour06:13:33  +  00:18:17=36,381 
84 ITANicola LodaITAFassa Bortolo06:16:04  +  00:20:48=36,137 
85 ITAMauro RadaelliITATacconi Sport06:16:04  +  00:20:48=36,137 
86 DDRErik ZabelUSATeam Telekom06:16:04  +  00:20:48=36,137 
87 ITAAndrea BrognaraITAAlessio06:16:04  +  00:20:48=36,137 
88 ESPAbraham OlanoESPO.N.C.E.-Eroski06:16:04  +  00:20:48=36,137 
89 GERRolf AldagUSATeam Telekom06:16:04  +  00:20:48=36,137 
90 FRAAnthony LangellaFRACredit Agricole06:16:04  +  00:20:48=36,137 
91 ESPJosé Angel VidalESPKelme-Costa Blanca06:16:04  +  00:20:48=36,137 
92 BELDave BruylandtsBELDomo-Farm Frites06:16:04  +  00:20:48=36,137 
93 UKRSerhiy HoncharITAFassa Bortolo06:16:04  +  00:20:48=36,137 
94 ITAMarco SerpelliniITALampre-Daikin06:16:04  +  00:20:48=36,137 
95 ESPSantiago BlancoESPibanesto.com06:16:04  +  00:20:48=36,137 
96 ESPDavid LatasaESPibanesto.com06:16:04  +  00:20:48=36,137 
97 MLTDavid MillarFRACofidis Credit Par Telephone06:16:15  +  00:20:59=36,120 
98 ITAGiuseppe GueriniUSATeam Telekom06:16:20  +  00:21:04=36,112 
99 ITADavide CasarottoITAAlessio06:18:49  +  00:23:33=35,875 
100 BELLudo DierckxsensITALampre-Daikin06:18:58  +  00:23:42=35,861 
101 RSARobert HunterITAMapei-Quick Step06:18:58  +  00:23:42=35,861 
102 ESPConstantino ZaballaESPKelme-Costa Blanca06:18:58  +  00:23:42=35,861 
103 COLVictor Hugo PenaUSAUS Postal Service06:18:58  +  00:23:42=35,861 
104 ESPPedro HorrilloITAMapei-Quick Step06:18:58  +  00:23:42=35,861 
105 SUILaurent DufauxITAAlessio06:18:58  +  00:23:42=35,861 
106 ESPFrancisco CabelloESPKelme-Costa Blanca06:18:58  +  00:23:42=35,861 
107 ITAAndrea PeronDNKTeam CSC-Tiscali06:18:58  +  00:23:42=35,861 
108 FRALaurent JalabertDNKTeam CSC-Tiscali06:18:58  +  00:23:42=35,861 
109 FRAEddy SeigneurFRAJean Delatour06:18:58  +  00:23:42=35,861 
110 FRASébastien HinaultFRACredit Agricole06:18:58  +  00:23:42=35,861 
111 ESPBingen FernandezFRACofidis Credit Par Telephone06:18:58  +  00:23:42=35,861 
112 FRAChristophe EdaleineFRAJean Delatour06:18:58  +  00:23:42=35,861 
113 BELSerge BaguetBELLotto-Adecco06:18:58  +  00:23:42=35,861 
114 BELPaul Van HyfteDNKTeam CSC-Tiscali06:18:58  +  00:23:42=35,861 
115 RUSDenis MenchovESPibanesto.com06:18:58  +  00:23:42=35,861 
116 BELMarc WautersNLDRabobank06:18:58  +  00:23:42=35,861 
117 FRAWalter BénéteauFRABonjour06:18:58  +  00:23:42=35,861 
118 FRAJérôme BernardFRAJean Delatour06:18:58  +  00:23:42=35,861 
119 GERJens VoigtFRACredit Agricole06:18:58  +  00:23:42=35,861 
120 ITAMassimo ApollonioITATacconi Sport06:18:58  +  00:23:42=35,861 
121 FRAAnthony MorinFRACredit Agricole06:18:58  +  00:23:42=35,861 
122 CZEPavel PadrnosUSAUS Postal Service06:18:58  +  00:23:42=35,861 
123 ITAMassimo DonatiITATacconi Sport06:18:58  +  00:23:42=35,861 
124 FRAChristophe OriolFRAAg2r Prevoyance06:18:58  +  00:23:42=35,861 
125 GERSteffen WesemannUSATeam Telekom06:18:58  +  00:23:42=35,861 
126 ESPJavier PascualESPibanesto.com06:18:58  +  00:23:42=35,861 
127 USAKevin LivingstonUSATeam Telekom06:18:58  +  00:23:42=35,861 
128 NEDServais KnavenBELDomo-Farm Frites06:18:58  +  00:23:42=35,861 
129 BELHans De ClercqBELLotto-Adecco06:18:58  +  00:23:42=35,861 
130 AUSRobbie McEwenBELLotto-Adecco06:18:58  +  00:23:42=35,861 
131 FRAFranck BouyerFRABonjour06:18:58  +  00:23:42=35,861 
132 NEDBram de GrootNLDRabobank06:18:58  +  00:23:42=35,861 
133 ITAFabio BaldatoITAFassa Bortolo06:18:58  +  00:23:42=35,861 
134 ESPGorka ArrizabalagaESPEuskaltel - Euskadi06:18:58  +  00:23:42=35,861 
135 VENUnai EtxebarriaESPEuskaltel - Euskadi06:18:58  +  00:23:42=35,861 
136 ITACristian MoreniITAAlessio06:18:58  +  00:23:42=35,861 
137 AUSStuart O'GradyFRACredit Agricole06:18:58  +  00:23:42=35,861 
138 FRALudovic TurpinFRAAg2r Prevoyance06:18:58  +  00:23:42=35,861 
139 SVKJán SvoradaITALampre-Daikin06:18:58  +  00:23:42=35,861 
140 FRAFrédéric GuesdonFRAfdjeux.com06:18:58  +  00:23:42=35,861 
141 FRADamien NazonFRABonjour06:18:58  +  00:23:42=35,861 
142 ITAGian Matteo FagniniUSATeam Telekom06:19:12  +  00:23:56=35,839 
143 COLFred RodriguezBELDomo-Farm Frites06:20:01  +  00:24:45=35,762 
144 BELNico MattanFRACofidis Credit Par Telephone06:20:34  +  00:25:18=35,710 
145 LUXBenoit JoachimUSAUS Postal Service06:20:34  +  00:25:18=35,710 
146 URSRaivis BelohvosciksITALampre-Daikin06:20:34  +  00:25:18=35,710 
147 AUSBradley McGeeFRAfdjeux.com06:20:34  +  00:25:18=35,710 
148 AUSBaden CookeFRAfdjeux.com06:20:34  +  00:25:18=35,710 
149 ITAAlessandro CortinovisITALampre-Daikin06:20:34  +  00:25:18=35,710 
150 NORThor HushovdFRACredit Agricole06:20:34  +  00:25:18=35,710 
151 DENJakob PiilDNKTeam CSC-Tiscali06:20:34  +  00:25:18=35,710 
152 ITAEnrico CassaniBELDomo-Farm Frites06:20:34  +  00:25:18=35,710 
153 ESPIgor Flores GalarzaESPEuskaltel - Euskadi06:20:34  +  00:25:18=35,710 
154 URSViatcheslav EkimovUSAUS Postal Service06:20:34  +  00:25:18=35,710 
155 NEDLeon van BonBELDomo-Farm Frites06:20:34  +  00:25:18=35,710 
156 NEDErik DekkerNLDRabobank06:20:34  +  00:25:18=35,710 
157 GERDanilo HondoUSATeam Telekom06:20:34  +  00:25:18=35,710 
158 SUIRubens BertogliatiITALampre-Daikin06:20:34  +  00:25:18=35,710 
159 URSArvis PiziksDNKTeam CSC-Tiscali06:20:39  +  00:25:23=35,702 
160 RUSGuennadi MikhailovBELLotto-Adecco06:21:03  +  00:25:47=35,665 
161 NEDKarsten KroonNLDRabobank06:22:38  +  00:27:22=35,517 
162 FRAJimmy CasperFRAfdjeux.com06:33:31  +  00:38:15=34,535 

Withdrawls: 1
 
Rider
Team
Reason
61  FRAChristophe MoreauFRACredit AgricoleDid not finish

Todays birthdays.

1887  Donald Kirkham
1889  Théodore Abada
1911  Guillaume Chavard
1912  Jean Fontenay
1913  Fabien Galateau
1930  Roger Hassenforder
1930  Richard Van Genechten
1936  Philippe Gaudrillet
1937  Joseph Novales
1954  Hans-Peter Jakst
1960  Manuel Ramos
1973  David Etxebarria
1974  Rik Verbrugghe
1976  Jörg Jaksche




Visits: